Location: Unspecified
(43.3830°N, 0.0000°E)
Time: 11:09:13
(UTC+00:00)

Vanguard 2 - Pass Details

Date: 25 June 2019
Orbit: 553 x 2938 km, 32.9° (Epoch: 16 July)

Event Time Altitude Azimuth Distance (km) Brightness Sun altitude
Rises 10:51:43 0° 260° (W) 3,554 10.8 65.2°
Reaches altitude 10° 10:54:08 10° 251° (WSW) 2,852 10.5 65.5°
Maximum altitude 11:00:24 34° 188° (S) 2,170 10.7 66.2°
Drops below altitude 10° 11:10:05 10° 131° (SE) 4,447 11.9 67.3°
Sets 11:14:54 0° 123° (ESE) 5,848 12.3 67.7°
